星链-5384 (STARLINK-5384 )

导读

STARLINK-5384是美国SpaceX公司星链星座的第二代低轨通信卫星,于2022年12月28日发射升空。卫星运行于近地轨道,配备相控阵通信天线与氪离子霍尔推进器,可自主完成轨道机动和碰撞规避,依托激光星间链路实现高速通信,为全球提供低延迟、高带宽的卫星互联网接入服务,属于星链全球覆盖组网的组成部分。

基本信息
目录编号:
54836
目录名称:
STARLINK-5384
国际标识:
2022-177S
轨道中心:
EARTH
卫星名称:
星链-5384
卫星全名:
星链-5384 (STARLINK-5384 )
卫星状态:
已陨落 最后检测时间 2026-06-03
发射日期:
2022-12-28 UTC
国别 :
美国 (US)
星等 :
--
轨道信息
数据来源 国际轨道数据
星历时间: 2026-06-03T20:38:27+0800
轨道信息已过期13天
半长轴: 6541.919km
偏心率: 0.0008135
轨道倾角: 42.990°
近地点辐角 282.271°
升交点赤经 334.206°
平近点角 77.727°
近地点: 158.46km
远地点: 169.104km
周期: 87.764分钟
每日圈数: 16.407602
详细信息
固有亮度:
5
最大亮度:
2.5
卫星平台:
Starlink v1.5
覆盖范围:
全球
运营商:
太空探索技术公司
运营商所在国:
美国
制造商(研发单位):
太空探索技术公司
制造商所在国:
美国
使用方式:
暂无
卫星简介
星链(Starlink)计划是由太空探索技术公司(SpaceX)提出的一个巨型低轨卫星互联网星座项目,计划在2019年至2024年间在太空搭建由约1.2万颗卫星组成的“星链”网络,其中1584颗将部署在地球上空550千米处的近地轨道,并从2020年开始工作。该卫星仍在工作。